College Park, MD

4:50 AM EDT on September 22, 2019 (GMT -0400)
College Park

Weather History for KCGS - August, 2019

Change the Weather History Date:

Sunday, August 25, 2019

  Actual Average Record
Temperature  
Mean Temperature 68 °F -  
Max Temperature 76 °F 85 °F 98 °F (2007)
Min Temperature 59 °F 64 °F 43 °F (1952)
Cooling Degree Days 2    
Growing Degree Days 18 (Base 50)    
Moisture  
Dew Point 54 °F    
Average Humidity 61    
Maximum Humidity 94    
Minimum Humidity 41    
Precipitation  
Precipitation 0.00 in - - ()
Sea Level Pressure  
Sea Level Pressure 30.19 in    
Wind  
Wind Speed 2 mph (ENE)    
Max Wind Speed 14 mph    
Max Gust Speed 23 mph    
Visibility 10 miles    
Events      
Averages and records for this station are not official NWS values.
T = Trace of Precipitation, MM = Missing Value Source: NWS Daily Summary

Daily Weather History Graph

Daily Weather History Graph

Search for Another Location

Airport or City:

Astronomy

Aug. 25, 2019 Rise Set
Actual Time 6:30 AM EDT 7:48 PM EDT
Civil Twilight 6:02 AM EDT 8:16 PM EDT
Nautical Twilight 5:28 AM EDT 8:49 PM EDT
Astronomical Twilight 4:53 AM EDT 9:24 PM EDT
Moon 1:04 AM EDT (8/25) 4:05 PM EDT (8/25)
Length of Visible Light 14h 14m
Length of Day
13h 18m
Waning Crescent, 29% of the Moon is Illuminated
Aug 25
Waning Crescent
Aug 30
New
Sep 5
First Quarter
Sep 14
Full
Sep 21
Last Quarter

Hourly Weather History & Observations

Time (EDT) Temp. Dew Point Humidity Pressure Visibility Wind Dir Wind Speed Gust Speed Precip Events Conditions
12:03 AM 61.2 °F 59.4 °F 94% 30.21 in 10.0 mi Calm Calm - N/A   Mostly Cloudy
12:23 AM 60.8 °F 59.0 °F 94% 30.21 in 10.0 mi Calm Calm - N/A   Mostly Cloudy
1:03 AM 60.3 °F 58.5 °F 94% 30.21 in 10.0 mi Calm Calm - N/A   Overcast
1:23 AM 60.6 °F 58.6 °F 93% 30.20 in 10.0 mi Calm Calm - N/A   Mostly Cloudy
1:43 AM 60.6 °F 58.6 °F 93% 30.20 in 10.0 mi Calm Calm - N/A   Overcast
2:03 AM 61.0 °F 59.2 °F 94% 30.20 in 10.0 mi Calm Calm - N/A   Mostly Cloudy
2:23 AM 59.5 °F 57.7 °F 94% 30.20 in 10.0 mi Calm Calm - N/A   Scattered Clouds
2:43 AM 59.2 °F 57.4 °F 94% 30.20 in 10.0 mi Calm Calm - N/A   Clear
3:03 AM - - N/A% 30.19 in 10.0 mi Calm Calm - N/A   Scattered Clouds
3:23 AM - - N/A% 30.19 in 10.0 mi Calm Calm - N/A   Scattered Clouds
3:43 AM - - N/A% 30.19 in 10.0 mi Calm Calm - N/A   Mostly Cloudy
4:03 AM - - N/A% 30.19 in 10.0 mi Calm Calm - N/A   Mostly Cloudy
4:23 AM - - N/A% 30.19 in 10.0 mi Calm Calm - N/A   Mostly Cloudy
4:43 AM - - N/A% 30.19 in 10.0 mi Calm Calm - N/A   Mostly Cloudy
5:23 AM - - N/A% 30.19 in 10.0 mi Calm Calm - N/A   Scattered Clouds
5:43 AM - - N/A% 30.19 in 10.0 mi Calm Calm - N/A   Scattered Clouds
6:03 AM - - N/A% 30.20 in 10.0 mi Calm Calm - N/A   Scattered Clouds
6:23 AM - - N/A% 30.20 in 10.0 mi Calm Calm - N/A   Mostly Cloudy
6:43 AM - - N/A% 30.20 in 10.0 mi Calm Calm - N/A   Overcast
7:03 AM - - N/A% 30.21 in 10.0 mi Calm Calm - N/A   Scattered Clouds
7:23 AM - - N/A% 30.22 in 10.0 mi NNW 3.5 mph - N/A   Clear
7:43 AM 61.7 °F 59.9 °F 94% 30.22 in 10.0 mi Calm Calm - N/A   Clear
8:03 AM 63.0 °F 61.0 °F 93% 30.22 in 10.0 mi Calm Calm - N/A   Clear
8:23 AM 64.6 °F 55.2 °F 72% 30.23 in 10.0 mi NNE 3.5 mph - N/A   Clear
8:43 AM 66.0 °F 52.5 °F 62% 30.22 in 10.0 mi NNE 6.9 mph - N/A   Clear
9:03 AM 66.6 °F 52.9 °F 61% 30.22 in 10.0 mi NNE 4.6 mph - N/A   Clear
9:43 AM 69.1 °F 53.8 °F 58% 30.22 in 10.0 mi NNE 9.2 mph - N/A   Clear
10:03 AM 70.3 °F 53.6 °F 55% 30.22 in 10.0 mi NNE 10.4 mph 16.1 mph N/A   Clear
10:23 AM 70.7 °F 52.3 °F 52% 30.22 in 10.0 mi NE 11.5 mph 17.3 mph N/A   Clear
10:43 AM 72.1 °F 52.9 °F 51% 30.22 in 10.0 mi ENE 13.8 mph 21.9 mph N/A   Scattered Clouds
11:03 AM 72.9 °F 52.0 °F 48% 30.22 in 10.0 mi NNE 9.2 mph - N/A   Scattered Clouds
11:23 AM 72.3 °F 50.4 °F 46% 30.22 in 10.0 mi NNE 9.2 mph - N/A   Scattered Clouds
11:43 AM 72.5 °F 51.3 °F 47% 30.21 in 10.0 mi NNE 9.2 mph - N/A   Clear
12:03 PM 73.0 °F 50.5 °F 45% 30.21 in 10.0 mi NE 4.6 mph - N/A   Scattered Clouds
12:23 PM 73.0 °F 51.8 °F 47% 30.21 in 10.0 mi NE 9.2 mph - N/A   Scattered Clouds
12:43 PM 73.8 °F 52.3 °F 47% 30.21 in 10.0 mi ENE 8.1 mph - N/A   Scattered Clouds
1:03 PM 74.1 °F 53.8 °F 49% 30.20 in 10.0 mi East 6.9 mph - N/A   Mostly Cloudy
1:43 PM 75.4 °F 53.4 °F 46% 30.20 in 10.0 mi ENE 8.1 mph - N/A   Scattered Clouds
2:03 PM 75.0 °F 51.6 °F 44% 30.19 in 10.0 mi ENE 11.5 mph 23.0 mph N/A   Clear
2:23 PM 74.7 °F 50.9 °F 43% 30.19 in 10.0 mi ENE 8.1 mph 17.3 mph N/A   Scattered Clouds
3:03 PM 75.0 °F 50.7 °F 42% 30.18 in 10.0 mi ENE 8.1 mph - N/A   Clear
3:23 PM 76.3 °F 51.4 °F 42% 30.17 in 10.0 mi ENE 5.8 mph 17.3 mph N/A   Scattered Clouds
3:43 PM 76.1 °F 51.8 °F 43% 30.17 in 10.0 mi NE 6.9 mph - N/A   Scattered Clouds
4:23 PM 76.3 °F 50.9 °F 41% 30.17 in 10.0 mi ENE 8.1 mph - N/A   Scattered Clouds
4:43 PM 75.4 °F 50.4 °F 41% 30.17 in 10.0 mi ENE 8.1 mph - N/A   Scattered Clouds
5:03 PM 75.9 °F 52.7 °F 44% 30.17 in 10.0 mi ENE 6.9 mph - N/A   Clear
5:23 PM 73.9 °F 52.9 °F 48% 30.17 in 10.0 mi East 6.9 mph - N/A   Scattered Clouds
5:43 PM 74.8 °F 53.6 °F 47% 30.17 in 10.0 mi East 5.8 mph - N/A   Scattered Clouds
6:03 PM 74.5 °F 53.8 °F 48% 30.17 in 10.0 mi East 8.1 mph - N/A   Mostly Cloudy
6:23 PM 73.8 °F 53.4 °F 49% 30.17 in 10.0 mi ENE 8.1 mph - N/A   Overcast
6:43 PM 73.2 °F 53.6 °F 50% 30.17 in 10.0 mi Calm Calm - N/A   Mostly Cloudy
7:03 PM 72.9 °F 54.0 °F 51% 30.17 in 10.0 mi ENE 5.8 mph - N/A   Mostly Cloudy
7:23 PM 72.9 °F 53.6 °F 51% 30.16 in 10.0 mi East 3.5 mph - N/A   Overcast
7:43 PM 71.6 °F 54.7 °F 55% 30.16 in 10.0 mi East 4.6 mph - N/A   Overcast
8:03 PM 70.9 °F 54.9 °F 57% 30.16 in 10.0 mi East 3.5 mph - N/A   Overcast
8:23 PM 70.3 °F 54.5 °F 57% 30.17 in 10.0 mi Calm Calm - N/A   Overcast
8:43 PM 69.4 °F 54.1 °F 58% 30.17 in 10.0 mi East 3.5 mph - N/A   Scattered Clouds
9:03 PM 68.9 °F 54.1 °F 59% 30.18 in 10.0 mi Calm Calm - N/A   Clear
9:23 PM 68.2 °F 54.0 °F 60% 30.18 in 10.0 mi Calm Calm - N/A   Clear
9:43 PM 67.1 °F 54.1 °F 63% 30.18 in 10.0 mi Calm Calm - N/A   Clear
10:03 PM 66.2 °F 54.5 °F 66% 30.19 in 10.0 mi Calm Calm - N/A   Clear
10:23 PM 64.9 °F 54.1 °F 68% 30.20 in 10.0 mi Calm Calm - N/A   Clear
10:43 PM 63.7 °F 54.0 °F 71% 30.20 in 10.0 mi Calm Calm - N/A   Clear
11:03 PM 63.7 °F 53.8 °F 70% 30.20 in 10.0 mi Calm Calm - N/A   Clear
11:23 PM 62.8 °F 54.5 °F 74% 30.20 in 10.0 mi Calm Calm - N/A   Clear
11:43 PM 61.7 °F 55.4 °F 80% 30.20 in 10.0 mi Calm Calm - N/A   Clear